Location: �terpigny
(49.8910°N, 2.9249°E)
Time: 10:06:28
(UTC+00:00)

DIWATA 2B (PO-101) - Pass Details

Date: 26 June 2022
Orbit: 583 x 599 km, 98.0° (Epoch: 14 August)

Event Time Altitude Azimuth Distance (km) Brightness Sun altitude
Exits shadow 00:57:26 10° 139° (SE) 1,961 ? -15.3°
Reaches altitude 10° 00:57:30 10° 139° (SE) 1,934 ? -15.3°
Maximum altitude 01:01:28 42° 69° (ENE) 861 ? -15.1°
Drops below altitude 10° 01:05:28 10° 358° (N) 1,952 ? -14.9°
Sets 01:07:43 0° 352° (N) 2,860 ? -14.8°
